Tracking 31027 objects as of 19-Jul-2025
HD Live streaming from Space Station
objects crossing your sky now

NOAA 16 DEB

Track NOAA 16 DEB now!
10-day predictions


NORAD ID: 42368
Int'l Code: 2000-055RL
Perigee: 805.5 km
Apogee: 818.1 km
Inclination: 98.7 °
Period: 101.0 minutes
Semi major axis: 7182 km
RCS: Unknown
Launch date: September 21, 2000
Source: United States (US)
Launch site: AIR FORCE WESTERN TEST RANGE (AFWTR)

Note: This is SATELLITE DEBRIS
Your satellite tracking list
TITAN 3C TRANSTAGE DEB
Track 1 satellite(s)




NASA's NSSDC Master Catalog

Two Line Element Set (TLE):
1 42368U 00055RL  25199.46925574  .00002667  00000-0  11326-2 0  9997
2 42368  98.7370 276.7762 0008785 319.0231  41.0287 14.26136749479637
Source of the keplerian elements: AFSPC